Flag for U.S.A. Weather past 2 weeks in Salina, Kansas, U.S.A.

Now
45 °F

Low clouds.


Feels Like: 39 °F
Forecast: 36 / 47 °F
Wind: 12 mph from South

Location: Salina Municipal Airport

Current Time: Dec 21, 2014 at 6:24:06 PM

Latest Report: Dec 21, 2014 at 5:53 PM


Visibility: 8 mi

Pressure: 29.70 "Hg

Humidity: 90%

Dew point: 42 °F

Location of SalinaLocation

Historic Weather in Salina — Graph

°F

Salina temperature yesterday

Maximum temperature yesterday: 52 °F (at 2:53 PM)
Minimum temperature yesterday: 27 °F (at 4:53 AM)
Average temperature yesterday: 39 °F

Past Weeks' High & Low Weather Summary

 TemperatureHumidityPressure
High62 °F (Dec 14, 12:53 PM)97% (Dec 8, 3:53 AM)30.55 "Hg (Dec 8, 3:53 AM)
Low25 °F (Dec 17, 1:53 AM)34% (Dec 8, 2:53 PM)29.52 "Hg (Dec 15, 4:53 AM)
Average40 °F82%30.17 "Hg
* Reported Dec 6 4:53 PM — Dec 21 4:53 PM, Salina, Weather by CustomWeather, © 2014

Note: Actual official high and low records may vary slightly from our data, if they occured in-between our weather recording intervals... More about our weather records

Advertising

Salina weather history for previous 24 hours

 ConditionsComfort  
Time TempWeatherWind HumidityBarometerVisibility
4:53 PM
Dec 21
44 °FFog.13 mph93%29.72 "Hg3 mi
3:53 PM44 °FFog.15 mph89%29.74 "Hg4 mi
2:53 PM44 °FFog.15 mph89%29.76 "Hg6 mi
1:53 PM44 °FLow clouds.9 mph85%29.78 "Hg7 mi
12:53 PM43 °FFog.18 mph86%29.82 "Hg6 mi
11:53 AM43 °FFog.15 mph86%29.86 "Hg6 mi
10:53 AM43 °FLow clouds.13 mph86%29.91 "Hg8 mi
9:53 AM42 °FOvercast.15 mph85%29.91 "Hg10 mi
8:53 AM41 °FOvercast.12 mph89%29.93 "Hg8 mi
7:53 AM41 °FLow clouds.12 mph89%29.96 "Hg7 mi
6:53 AM40 °FLow clouds.15 mph89%29.98 "Hg7 mi
5:53 AM41 °FFog.16 mph89%29.98 "Hg6 mi
4:53 AM40 °FLow clouds.10 mph89%29.99 "Hg7 mi
3:53 AM37 °FPassing clouds.13 mph93%30.01 "Hg7 mi
2:53 AM36 °FClear.8 mph89%30.01 "Hg8 mi
1:53 AM37 °FClear.7 mph89%30.03 "Hg10 mi
12:53 AM39 °FClear.8 mph89%30.04 "Hg10 mi
11:53 PM
Dec 20
42 °FOvercast.16 mph82%30.04 "Hg10 mi
10:53 PM40 °FClear.13 mph86%30.06 "Hg10 mi
9:53 PM40 °FClear.10 mph86%30.05 "Hg10 mi
8:53 PM40 °FClear.10 mph86%30.08 "Hg10 mi
7:53 PM40 °FClear.7 mph83%30.09 "Hg10 mi
6:53 PM41 °FClear.12 mph82%30.09 "Hg10 mi
Weather by CustomWeather, © 2014

See weather overviewHow to use our weather pages